Weather History for Destin, FL

Change the Weather History Date:

Saturday, July 20, 2013

  Actual Average Record
Temperature  
Mean Temperature 82 °F -  
Max Temperature 87 °F 87 °F 99 °F (2000)
Min Temperature 77 °F 74 °F 73 °F (2003)
Cooling Degree Days 16    
Growing Degree Days 32 (Base 50)    
Moisture  
Dew Point 74 °F    
Average Humidity 79    
Maximum Humidity 89    
Minimum Humidity 70    
Precipitation  
Precipitation 0.49 in - - ()
Sea Level Pressure  
Sea Level Pressure 30.00 in    
Wind  
Wind Speed 7 mph (SSW)    
Max Wind Speed 12 mph    
Max Gust Speed 25 mph    
Visibility 8 miles    
Events Rain , Thunderstorm    
Averages and records for this station are not official NWS values.
T = Trace of Precipitation, MM = Missing Value Source: NWS Daily Summary

Daily Weather History Graph

Daily Weather History Graph

Search for Another Location

Airport:

Trip Planner

Search our weather history database for the weather conditions in past years. The results will help you decide how hot, cold, wet, or windy it might be!

Date:

Astronomy

Jul. 20, 2013 Rise Set
Actual Time 5:57 AM CDT 7:47 PM CDT
Civil Twilight 5:30 AM CDT 8:13 PM CDT
Nautical Twilight 4:58 AM CDT 8:46 PM CDT
Astronomical Twilight 4:23 AM CDT 9:20 PM CDT
Moon 5:50 PM CDT (7/20) 3:36 AM CDT (7/20)
Length of Visible Light 14h 43m
Length of Day
13h 49m
Waxing Gibbous, 94% of the Moon is Illuminated
Jul 20
Waxing Gibbous
Jul 22
Full
Jul 29
Last Quarter
Aug 6
New
Aug 14
First Quarter

Hourly Weather History & Observations

Time (CDT) Temp. Heat Index Dew Point Humidity Pressure Visibility Wind Dir Wind Speed Gust Speed Precip Events Conditions
12:53 AM 81.0 °F 86.2 °F 73.9 °F 79% 30.02 in 10.0 mi SSE 5.8 mph - N/A   Clear
1:53 AM 81.0 °F 86.7 °F 75.0 °F 82% 30.00 in 10.0 mi SSE 5.8 mph - N/A   Partly Cloudy
2:45 AM 80.6 °F 85.4 °F 73.4 °F 79% 30.00 in 10.0 mi South 10.4 mph 16.1 mph N/A   Mostly Cloudy
2:53 AM 80.1 °F 84.5 °F 73.9 °F 81% 30.00 in 8.0 mi South 5.8 mph 16.1 mph 0.00 in Rain Light Rain
3:53 AM 82.0 °F 87.9 °F 73.9 °F 76% 29.97 in 10.0 mi South 6.9 mph - 0.03 in   Mostly Cloudy
4:06 AM 80.6 °F 86.2 °F 75.2 °F 84% 29.97 in 10.0 mi South 6.9 mph - N/A   Scattered Clouds
4:53 AM 80.1 °F 84.2 °F 73.0 °F 79% 29.99 in 10.0 mi South 4.6 mph - 0.00 in   Partly Cloudy
5:53 AM 79.0 °F - 73.9 °F 84% 30.00 in 3.0 mi SW 10.4 mph 25.3 mph 0.07 in Rain Rain
5:57 AM 78.8 °F - 73.4 °F 83% 30.00 in 1.8 mi SW 9.2 mph 25.3 mph 0.08 in Rain , Thunderstorm Heavy Rain
6:04 AM 78.8 °F - 73.4 °F 83% 30.00 in 2.0 mi Variable 4.6 mph - 0.10 in Rain , Thunderstorm Rain
6:12 AM 77.0 °F - 73.4 °F 89% 30.00 in 2.0 mi SW 5.8 mph - 0.20 in Rain Heavy Rain
6:30 AM 77.0 °F - 73.4 °F 89% 30.01 in 4.0 mi SSW 3.5 mph - 0.23 in Rain Light Rain
6:53 AM 78.1 °F - 73.9 °F 87% 30.01 in 5.0 mi Variable 3.5 mph - 0.25 in Rain Light Rain
7:53 AM 79.0 °F - 75.0 °F 88% 30.01 in 10.0 mi Variable 4.6 mph - 0.01 in Rain Light Rain
8:08 AM 78.8 °F - 75.2 °F 89% 30.02 in 9.0 mi South 6.9 mph - 0.01 in Rain Light Rain
8:16 AM 80.6 °F 86.2 °F 75.2 °F 84% 30.02 in 8.0 mi SSE 5.8 mph - 0.01 in Rain Light Rain
8:53 AM 80.1 °F 84.5 °F 73.9 °F 81% 30.03 in 10.0 mi Variable 6.9 mph 17.3 mph 0.03 in Rain Light Rain
9:53 AM 79.0 °F - 73.9 °F 84% 30.04 in 7.0 mi South 9.2 mph - 0.02 in Rain Light Rain
10:04 AM 78.8 °F - 73.4 °F 83% 30.04 in 7.0 mi South 8.1 mph 18.4 mph 0.01 in Rain Light Rain
10:11 AM 78.8 °F - 73.4 °F 83% 30.04 in 5.0 mi SSW 11.5 mph 20.7 mph 0.02 in Rain Rain
10:36 AM 78.8 °F - 73.4 °F 83% 30.04 in 6.0 mi South 9.2 mph - 0.05 in Rain Light Rain
10:53 AM 78.1 °F - 73.0 °F 84% 30.04 in 6.0 mi Variable 4.6 mph - 0.07 in Rain Light Rain
11:53 AM 80.1 °F 84.5 °F 73.9 °F 81% 30.03 in 10.0 mi Variable 6.9 mph - 0.01 in Rain Light Rain
12:53 PM 82.9 °F 90.2 °F 75.0 °F 77% 30.02 in 10.0 mi SSW 8.1 mph - 0.00 in   Partly Cloudy
1:07 PM 82.4 °F 89.5 °F 75.2 °F 79% 30.02 in 10.0 mi SSW 5.8 mph - N/A   Mostly Cloudy
1:53 PM 84.9 °F 93.3 °F 75.0 °F 72% 30.01 in 10.0 mi SW 9.2 mph - N/A   Mostly Cloudy
2:13 PM 86.0 °F 95.1 °F 75.2 °F 70% 30.00 in 10.0 mi SW 11.5 mph 17.3 mph N/A   Scattered Clouds
2:53 PM 86.0 °F 95.1 °F 75.0 °F 70% 29.99 in 10.0 mi SW 9.2 mph - 0.00 in   Partly Cloudy
3:53 PM 84.9 °F 93.3 °F 75.0 °F 72% 29.97 in 10.0 mi SW 6.9 mph - N/A   Scattered Clouds
4:53 PM 84.9 °F 93.3 °F 75.0 °F 72% 29.96 in 10.0 mi SW 11.5 mph 17.3 mph N/A   Mostly Cloudy
5:33 PM 84.2 °F 92.3 °F 75.2 °F 74% 29.96 in 10.0 mi SW 9.2 mph 17.3 mph 0.00 in Rain Light Rain
5:53 PM 84.9 °F 93.3 °F 75.0 °F 72% 29.95 in 10.0 mi SW 6.9 mph - 0.00 in   Scattered Clouds
6:05 PM 84.2 °F 92.3 °F 75.2 °F 74% 29.96 in 10.0 mi SW 9.2 mph 16.1 mph N/A   Mostly Cloudy
6:25 PM 84.2 °F 90.9 °F 73.4 °F 70% 29.97 in 10.0 mi SW 9.2 mph 17.3 mph N/A   Scattered Clouds
6:53 PM 84.0 °F 91.9 °F 75.0 °F 74% 29.98 in 10.0 mi WSW 9.2 mph 16.1 mph N/A   Scattered Clouds
7:53 PM 82.9 °F 89.4 °F 73.9 °F 74% 29.97 in 10.0 mi WSW 6.9 mph - N/A   Clear
8:53 PM 82.9 °F 90.2 °F 75.0 °F 77% 29.98 in 10.0 mi Variable 5.8 mph - N/A   Partly Cloudy
9:53 PM 82.9 °F 90.2 °F 75.0 °F 77% 30.01 in 10.0 mi WSW 6.9 mph - N/A   Partly Cloudy
10:53 PM 82.9 °F 90.2 °F 75.0 °F 77% 30.03 in 10.0 mi WSW 5.8 mph - N/A   Scattered Clouds
11:53 PM 82.9 °F 89.4 °F 73.9 °F 74% 30.03 in 10.0 mi Variable 5.8 mph - N/A   Partly Cloudy